This demonstration page uses our WeatherBlox Daily Observations layout. Learn more.

Hourly Observations for March 30, 2016

Temp ( °F °C ) Dew Point ( °F °C ) Humidity (%) Winds ( mph kmh ) Pressure ( in mb ) Visibility ( mi km ) Precip ( " mm )
12:15 am 00:15 Clear 46 8 27 -3 46 46 NNW 6 9 30.3 1026 10 16.09344 0 0
12:35 am 00:35 Clear 46 8 27 -3 46 46 Calm 30.3 1026 10 16.09344 0 0
12:55 am 00:55 Clear 45 7 28 -2 53 53 NW 3 6 30.33 1027 10 16.09344 0 0
1:15 am 01:15 Clear 45 7 27 -3 49 49 N 3 6 30.33 1027 10 16.09344 0 0
1:35 am 01:35 Clear 43 6 28 -2 57 57 N 3 6 30.33 1027 10 16.09344 0 0
1:55 am 01:55 Clear 41 5 30 -1 66 66 Calm 30.33 1027 10 16.09344 0 0
2:15 am 02:15 Clear 39 4 30 -1 70 70 Calm 30.33 1027 10 16.09344 0 0
2:35 am 02:35 Clear 36 2 32 0 87 87 Calm 30.36 1028 10 16.09344 0 0
2:55 am 02:55 Clear 36 2 32 0 87 87 NW 3 6 30.36 1028 10 16.09344 0 0
3:15 am 03:15 Clear 36 2 32 0 87 87 Calm 30.33 1027 10 16.09344 0 0
3:35 am 03:35 Clear 36 2 32 0 87 87 Calm 30.36 1028 10 16.09344 0 0
3:55 am 03:55 Clear 36 2 30 -1 81 81 N 3 6 30.36 1028 10 16.09344 0 0
4:15 am 04:15 Clear 37 3 28 -2 70 70 N 3 6 30.36 1028 10 16.09344 0 0
4:35 am 04:35 Clear 34 1 30 -1 87 87 Calm 30.36 1028 10 16.09344 0 0
4:55 am 04:55 Clear 34 1 30 -1 87 87 Calm 30.36 1028 10 16.09344 0 0
5:15 am 05:15 Clear 32 0 30 -1 93 93 Calm 30.36 1028 10 16.09344 0 0
5:35 am 05:35 Clear 32 0 30 -1 93 93 Calm 30.36 1028 10 16.09344 0 0
5:55 am 05:55 Clear 32 0 30 -1 93 93 N 3 6 30.39 1029 10 16.09344 0 0
6:15 am 06:15 Clear 34 1 30 -1 87 87 NNE 3 6 30.39 1029 10 16.09344 0 0
6:35 am 06:35 Clear 32 0 30 -1 93 93 N 3 6 30.39 1029 10 16.09344 0 0
6:55 am 06:55 Clear 32 0 30 -1 93 93 N 3 6 30.42 1030 10 16.09344 0 0
7:15 am 07:15 Sunny 32 0 30 -1 93 93 Calm 30.42 1030 10 16.09344 0 0
7:35 am 07:35 Sunny 32 0 32 0 100 100 Calm 30.42 1030 10 16.09344 0 0
7:55 am 07:55 Sunny 34 1 32 0 93 93 Calm 30.42 1030 10 16.09344 0 0
8:15 am 08:15 Sunny 36 2 32 0 87 87 Calm 30.42 1030 10 16.09344 0 0
8:35 am 08:35 Sunny 39 4 30 -1 70 70 Calm 30.42 1030 10 16.09344 0 0
8:55 am 08:55 Sunny 43 6 32 0 66 66 Calm 30.42 1030 10 16.09344 0 0
9:15 am 09:15 Sunny 45 7 32 0 61 61 SSE 3 6 30.42 1030 10 16.09344 0 0
9:35 am 09:35 Sunny 46 8 28 -2 50 50 SSE 7 11 30.42 1030 10 16.09344 0 0
9:55 am 09:55 Sunny 48 9 28 -2 46 46 S 9 15 30.42 1030 10 16.09344 0 0
10:15 am 10:15 Sunny 50 10 27 -3 40 40 S 12 19 30.42 1030 10 16.09344 0 0
10:35 am 10:35 Sunny 52 11 27 -3 38 38 SSE 5 7 30.42 1030 10 16.09344 0 0
10:55 am 10:55 Sunny 52 11 28 -2 41 41 S 10 17 30.39 1029 10 16.09344 0 0
11:15 am 11:15 Sunny 54 12 27 -3 35 35 SSE 8 13 30.39 1029 10 16.09344 0 0
11:35 am 11:35 Sunny 54 12 27 -3 35 35 SSE 9 15 30.39 1029 10 16.09344 0 0
11:55 am 11:55 Sunny 55 13 28 -2 36 36 SE 7 11 30.36 1028 10 16.09344 0 0
12:15 pm 12:15 Sunny 57 14 28 -2 33 33 S 9 15 30.33 1027 10 16.09344 0 0
12:35 pm 12:35 Sunny 59 15 28 -2 31 31 SSE 15 24 30.33 1027 10 16.09344 0 0
12:55 pm 12:55 Sunny 59 15 28 -2 31 31 SSE 13 20 30.3 1026 10 16.09344 0 0
1:15 pm 13:15 Sunny 61 16 30 -1 31 31 SSE 14 22 30.3 1026 10 16.09344 0 0
1:35 pm 13:35 Sunny 61 16 28 -2 29 29 S 14 22 30.3 1026 10 16.09344 0 0
1:55 pm 13:55 Sunny 63 17 30 -1 30 30 S 10 17 30.27 1025 10 16.09344 0 0
2:15 pm 14:15 Sunny 63 17 32 0 32 32 S 10 17 30.27 1025 10 16.09344 0 0
2:35 pm 14:35 Sunny 63 17 30 -1 30 30 S 20 31 30.27 1025 10 16.09344 0 0
2:55 pm 14:55 Sunny 64 18 32 0 30 30 SSW 14 22 30.24 1024 10 16.09344 0 0
3:15 pm 15:15 Sunny 64 18 32 0 30 30 S 13 20 30.24 1024 10 16.09344 0 0
3:35 pm 15:35 Sunny 64 18 32 0 30 30 SSW 14 22 30.24 1024 10 16.09344 0 0
3:55 pm 15:55 Sunny 64 18 34 1 32 32 S 18 30 30.21 1023 10 16.09344 0 0
4:15 pm 16:15 Sunny 66 19 34 1 30 30 S 14 22 30.21 1023 10 16.09344 0 0
4:35 pm 16:35 Sunny 66 19 34 1 30 30 S 17 28 30.18 1022 10 16.09344 0 0
4:55 pm 16:55 Sunny 66 19 34 1 30 30 SSW 16 26 30.18 1022 10 16.09344 0 0
5:15 pm 17:15 Sunny 66 19 36 2 32 32 S 16 26 30.18 1022 10 16.09344 0 0
5:35 pm 17:35 Sunny 64 18 34 1 32 32 S 15 24 30.15 1021 10 16.09344 0 0
5:55 pm 17:55 Sunny 64 18 34 1 32 32 S 15 24 30.15 1021 10 16.09344 0 0
6:15 pm 18:15 Sunny 64 18 34 1 32 32 S 14 22 30.15 1021 10 16.09344 0 0
6:35 pm 18:35 Sunny 64 18 34 1 32 32 SSE 12 19 30.15 1021 10 16.09344 0 0
6:55 pm 18:55 Sunny 63 17 36 2 37 37 SSE 15 24 30.15 1021 10 16.09344 0 0
7:15 pm 19:15 Sunny 61 16 36 2 39 39 SE 9 15 30.15 1021 10 16.09344 0 0
7:35 pm 19:35 Clear 61 16 36 2 39 39 SE 10 17 30.15 1021 10 16.09344 0 0
7:55 pm 19:55 Clear 61 16 37 3 42 42 SSE 12 19 30.15 1021 10 16.09344 0 0
8:15 pm 20:15 Clear 59 15 37 3 45 45 SE 10 17 30.15 1021 10 16.09344 0 0
8:35 pm 20:35 Clear 59 15 37 3 45 45 SSE 8 13 30.15 1021 10 16.09344 0 0
8:55 pm 20:55 Clear 59 15 39 4 48 48 SSE 8 13 30.15 1021 10 16.09344 0 0
9:15 pm 21:15 Clear 59 15 39 4 48 48 SSE 7 11 30.15 1021 10 16.09344 0 0
9:35 pm 21:35 Clear 57 14 39 4 51 51 SSE 9 15 30.15 1021 10 16.09344 0 0
9:55 pm 21:55 Clear 57 14 41 5 55 55 SSE 10 17 30.15 1021 10 16.09344 0 0
10:15 pm 22:15 Clear 55 13 41 5 59 59 SSE 7 11 30.15 1021 10 16.09344 0 0
10:35 pm 22:35 Clear 55 13 41 5 59 59 SSE 9 15 30.15 1021 10 16.09344 0 0
10:55 pm 22:55 Clear 55 13 39 4 55 55 SSE 8 13 30.15 1021 10 16.09344 0 0
11:15 pm 23:15 Clear 55 13 39 4 55 55 SSE 8 13 30.12 1020 10 16.09344 0 0
11:35 pm 23:35 Clear 55 13 39 4 55 55 S 9 15 30.12 1020 10 16.09344 0 0
11:55 pm 23:55 Clear 55 13 41 5 59 59 S 10 17 30.12 1020 10 16.09344 0 0

Powered by AerisWeather